Regional Weather Roundup
Issued by NWS

Home | Current Version | Previous Version | Graphics & Text | Print | Product List | Glossary On
Versions: 1 2 3 4 5 6 7 8 9 10 11 12 13 14 15 16 17 18 19 20 21 22 23 24 25 26 27 28 29 30 31 32 33 34 35 36 37 38 39 40 41 42 43 44 45 46 47 48 49 50
000
ASUS45 KABQ 290410
RWRNM
WEATHER ROUNDUP FOR NEW MEXICO
NATIONAL WEATHER SERVICE ALBUQUERQUE NM
900 PM MST SUN DEC 28 2014

NOTE: "FAIR" MEANS FEW OR NO CLOUDS BELOW 12,000 FEET AGL WITH NO
       SIGNIFICANT WEATHER OR OBSTRUCTIONS TO VISION.

      THIS PRODUCT IS RELEASED AS TWO VERSIONS.  ONE VERSION NEAR
      THE TOP OF THE HOUR CONTAINING PRELIMINARY DATA FROM ALBUQUERQUE
      AND OTHER STATIONS.  A FINAL VERSION WITH ADDITIONAL DATA IS
      ISSUED ABOUT 10 MINUTES AFTER THE HOUR.

NMZ501-503-504-510>518-290500-
NORTHWEST PLATEAU/NORTHCENTRAL MOUNTAINS

CITY           SKY/WX    TMP DP  RH WIND       PRES   REMARKS
FARMINGTON     CLEAR     12   6  77 E7        30.07S WCI   1
LOS ALAMOS     CLEAR     25   4  42 E6        30.03S WCI  18
SANTA FE       CLEAR     18   8  65 N6        30.04R WCI  10
TAOS           MOCLDY    12   3  67 E6        30.03S WCI   3
ANGEL FIRE     FAIR       6  -1  73 S5        29.99S WCI  -3

$$
NMZ402-403-502-505>509-290500-
WESTCENTRAL MOUNTAINS/SOUTHWEST MOUNTAINS

CITY           SKY/WX    TMP DP  RH WIND       PRES   REMARKS
GALLUP         CLEAR     11   4  73 E5        30.06F WCI   3
GRANTS         CLEAR     15   6  66 SW3       30.07S
SILVER CITY    MOCLDY    37  10  32 NW16      30.12S WCI  28

$$
NMZ407-409-411-412-290500-
SOUTHERN DESERTS

CITY           SKY/WX    TMP DP  RH WIND       PRES   REMARKS
LORDSBURG      FAIR      36  23  60 W5        30.13S WCI  32
DEMING         CLOUDY    36  21  54 SW5       30.11F WCI  32
LAS CRUCES     CLOUDY    37  28  69 S8        30.12S WCI  31
HOLLOMAN AFB   PTCLDY    35  18  48 SE5       30.10S WCI  31
ALAMOGORDO     PTCLDY    36  14  41 SE5       30.11S WCI  32
T OR C         PTCLDY    34  15  46 N3        30.07F

$$
NMZ519>523-290500-
CENTRAL VALLEYS/CENTRAL HIGHLANDS

CITY           SKY/WX    TMP DP  RH WIND       PRES   REMARKS
ALBUQUERQUE    CLEAR     26  12  55 E3        30.07S
DOUBLE EAGLE   CLEAR     19   9  63 CALM      30.06F
MORIARTY ARPT  FAIR      25  10  52 W9        30.04F WCI  15
CLINES CORNERS CLEAR     20   7  57 W21       29.97S WCI   4
BELEN          FAIR      22  12  66 CALM      30.08S
SOCORRO        FAIR      28   9  43 SW3       30.09S

$$
NMZ524>526-539-540-290500-
SOUTHCENTRAL MOUNTAINS

CITY           SKY/WX    TMP DP  RH WIND       PRES   REMARKS
RUIDOSO        PTCLDY    30   1  29 W5        30.07S WCI  25

$$
NMZ527>531-290500-
NORTHEAST HIGHLANDS/NORTHEAST PLAINS

CITY           SKY/WX    TMP DP  RH WIND       PRES   REMARKS
LAS VEGAS      CLEAR     20   6  55 S8        29.95S WCI  10
RATON          CLEAR     19   8  62 N6        29.92R WCI  11
CLAYTON        CLEAR     35  12  38 NW10      29.92R WCI  27

$$
NMZ532>537-290500-
EASTCENTRAL PLAINS

CITY           SKY/WX    TMP DP  RH WIND       PRES   REMARKS
TUCUMCARI      MOCLDY    37  14  38 W18       29.93R WCI  27
CANNON AFB     CLOUDY    37   7  28 W13       29.97R WCI  29
CLOVIS AIRPORT MOCLDY    37   7  28 W14       29.96R WCI  29

$$
NMZ028-029-538-290500-
SOUTHEAST PLAINS

CITY           SKY/WX    TMP DP  RH WIND       PRES   REMARKS
ROSWELL        MOCLDY    34  18  52 SW5       30.02S WCI  30
ARTESIA        PTCLDY    39  16  38 SW7       30.04S WCI  34
CARLSBAD       MOCLDY    46  23  40 S9G18     30.03R
HOBBS          CLEAR     34  28  80 CALM      30.04S


$$


USA.gov is the U.S. government's official web portal to all federal, state and local government web resources and services.